Current Weather Conditions: station 63055

sailwx.info

Last reported at 2019-Sep-20 16:39 UTC.
Time now 2019-Dec-11 17:00 UTC

Location: N 60°36' E 001°36'.
View on Google Maps.

See reports from other nearby stations

  
Tides and Currents Weather Stations Pressure Air Temp Water Temp Dewpoint Dewpoint Depression Visibility Wind Speed Wind Dir Waves Ship Positions
date/time (UTC)wind fromknots sea level pressurealtimeterstation pressurevisibilityair tempwater tempwave heightnotes
2019-Dec-11 15:00 200 34 10.8 7.0 6.1
2019-Dec-11 14:00 210 34 10.8 6.8 5.9
2019-Dec-11 13:00 210 33 5.4 6.3 6.0
2019-Dec-11 12:00 200 33 10.8 6.4 6.2
2019-Dec-11 11:00 200 31 10.8 6.5 5.9
2019-Dec-11 10:00 210 34 10.8 7.2 6.2
2019-Dec-11 09:00 220 32 10.8 7.2 5.6
2019-Dec-11 08:00 240 27 10.8 6.9 5.7
2019-Dec-11 07:00 230 32 10.8 6.6 5.8
2019-Dec-11 06:00 230 28 10.8 6.4 5.9
2019-Dec-11 05:00 230 25 10.8 6.1 5.4
2019-Dec-11 04:00 230 27 10.8 7.1 5.6
2019-Dec-11 03:00 240 34 10.8 7.0 5.9
2019-Dec-11 02:00 240 28 10.8 7.4 5.8
2019-Dec-11 01:00 240 28 10.8 6.3 5.9
2019-Dec-11 00:00 250 33 5.4 7.6 6.2
2019-Dec-10 23:00 240 31 10.8 7.1 5.6
2019-Dec-10 22:00 240 26 10.8 6.5 5.8
2019-Dec-10 21:00 260 19 2.2 6.3 6.6
2019-Dec-10 20:00 260 22 1.1 7.0 6.5
2019-Dec-10 19:00 250 26 2.2 8.2 7.2
2019-Dec-10 18:00 180 34 0.5 8.5 7.8
2019-Dec-10 17:00 170 35 1.1 8.3 6.8
2019-Dec-10 16:00 170 38 1.1 7.9 7.2
2019-Dec-10 15:00 160 36 0.3 7.6 7.9
2019-Dec-10 14:00 160 40 0.1 7.1 7.1
2019-Dec-10 13:00 160 41 0.1 6.9 6.6
2019-Dec-10 12:00 150 41 0.5 6.3 6.2
2019-Dec-10 11:00 150 41 0.5 6.2 5.4
2019-Dec-10 10:00 150 38 0.5 6.4 4.7
2019-Dec-10 09:00 150 38 1.1 6.7 4.3
2019-Dec-10 08:00 150 36 5.4 6.8 4.0
2019-Dec-10 07:00 150 32 10.8 6.6 3.3
2019-Dec-10 06:00 150 29 10.8 5.6 3.3
2019-Dec-10 05:00 160 29 10.8 4.7 3.1
2019-Dec-10 04:00 160 24 27.0 5.0 3.2
2019-Dec-10 03:00 170 20 27.0 4.9 3.3
2019-Dec-10 02:00 170 14 27.0 4.7 3.5
2019-Dec-10 01:00 190 8 27.0 4.4 3.9
2019-Dec-10 00:00 190 6 27.0 4.3 3.8
2019-Dec-09 23:00 260 2 27.0 4.2 4.3
2019-Dec-09 22:00 300 2 27.0 4.3 4.6
2019-Dec-09 21:00 350 5 27.0 3.9 4.7
2019-Dec-09 20:00 320 11 27.0 3.8 4.7
2019-Dec-09 19:00 330 14 27.0 4.0 5.1
2019-Dec-09 18:00 340 19 10.8 3.4 5.5
2019-Dec-09 17:00 320 15 27.0 3.4 5.4